WA6MHA-11 Weather Reports


time (UTC)temp
F
wind
direction
speed
knots
gust
knots
rain 1hr
in
rain 24hr
in
rain mn
in
humidity
%
barometer
mb
20260506231858 80 128 2.6 7.8 0.00 0.00 0.00 25 1016.4
20260506231457 80 168 1.7 7.8 0.00 0.00 0.00 25 1016.4
20260506231056 81 135 7.0 9.6 0.00 0.00 0.00 24 1016.4
20260506230655 82 112 2.6 9.6 0.00 0.00 0.00 24 1016.4
20260506230254 82 155 7.0 7.8 0.00 0.00 0.00 24 1016.5
20260506225852 84 216 3.5 8.7 0.00 0.00 0.00 25 1016.5
20260506225049 85 151 0.9 6.1 0.00 0.00 0.00 24 1016.6
20260506224649 85 144 2.6 8.7 0.00 0.00 0.00 24 1016.5
20260506224249 84 172 3.5 7.8 0.00 0.00 0.00 24 1016.6
20260506223846 84 187 4.3 8.7 0.00 0.00 0.00 24 1016.7
20260506223444 84 139 7.0 9.6 0.00 0.00 0.00 24 1016.7
20260506222642 85 182 3.5 8.7 0.00 0.00 0.00 24 1017.0
20260506221839 85 120 2.6 8.7 0.00 0.00 0.00 24 1017.1
20260506221439 85 186 7.0 7.8 0.00 0.00 0.00 24 1017.0
20260506220635 83 200 3.5 7.8 0.00 0.00 0.00 24 1017.1
20260506220234 84 168 1.7 7.8 0.00 0.00 0.00 24 1017.1
20260506215032 85 160 4.3 7.8 0.00 0.00 0.00 25 1017.3
20260506214629 85 45 2.6 5.2 0.00 0.00 0.00 25 1017.3
20260506213827 85 177 6.1 7.0 0.00 0.00 0.00 25 1017.4
20260506213425 85 157 1.7 4.3 0.00 0.00 0.00 24 1017.5
20260506213024 85 210 1.7 6.1 0.00 0.00 0.00 24 1017.5
20260506212623 85 154 0.9 10.4 0.00 0.00 0.00 26 1017.6
20260506212221 85 157 4.3 7.0 0.00 0.00 0.00 26 1017.6
20260506211420 85 150 6.1 7.8 0.00 0.00 0.00 26 1017.6
20260506211017 85 209 0.9 6.1 0.00 0.00 0.00 26 1017.7
20260506210617 85 145 2.6 0.0 0.00 0.00 0.00 1017.7
20260506210217 85 207 5.2 7.0 0.00 0.00 0.00 26 1017.7
20260506205412 85 157 3.5 7.0 0.00 0.00 0.00 26 1017.8
20260506205011 85 0 2.6 7.8 0.00 0.00 0.00 26 1017.8
20260506204610 84 137 5.2 7.0 0.00 0.00 0.00 26 1017.8
20260506204209 84 163 4.3 8.7 0.00 0.00 0.00 27 1017.9
20260506203807 84 135 8.7 8.7 0.00 0.00 0.00 27 1017.9
20260506202603 85 135 5.2 6.1 0.00 0.00 0.00 27 1017.9
20260506202203 84 182 4.3 6.1 0.00 0.00 0.00 27 1018.0
20260506201400 82 132 6.1 6.1 0.00 0.00 0.00 27 1018.2
20260506200958 81 186 4.3 10.4 0.00 0.00 0.00 27 1018.3
20260506200155 80 160 0.9 9.6 0.00 0.00 0.00 27 1018.3
20260506195754 78 135 3.5 10.4 0.00 0.00 0.00 27 1018.4
20260506195358 79 85 8.7 9.6 0.00 0.00 0.00 27 1018.3
20260506194550 78 135 8.7 15.6 0.00 0.00 0.00 27 1018.3
20260506194149 78 135 8.7 8.7 0.00 0.00 0.00 27 1018.4
20260506193748 78 146 9.6 10.4 0.00 0.00 0.00 27 1018.4
20260506193347 79 137 5.2 13.9 0.00 0.00 0.00 26 1018.5
20260506192143 83 117 5.2 9.6 0.00 0.00 0.00 26 1018.6
20260506191745 84 135 5.2 6.1 0.00 0.00 0.00 25 1018.5
20260506190939 85 270 2.6 3.5 0.00 0.00 0.00 26 1018.8
20260506190539 84 174 0.9 5.2 0.00 0.00 0.00 26 1018.8
20260506190136 84 216 3.5 5.2 0.00 0.00 0.00 26 1018.8
20260506185734 81 270 3.5 3.5 0.00 0.00 0.00 26 1018.8
20260506184531 82 41 3.5 5.2 0.00 0.00 0.00 26 1018.8
20260506183729 84 279 5.2 7.0 0.00 0.00 0.00 26 1018.9
20260506183327 83 245 2.6 9.6 0.00 0.00 0.00 26 1018.9
20260506182926 82 270 2.6 7.0 0.00 0.00 0.00 27 1019.0
20260506182525 81 90 1.7 7.8 0.00 0.00 0.00 27 1018.9
20260506182124 80 153 6.1 7.8 0.00 0.00 0.00 27 1019.0
20260506180521 79 236 3.5 6.1 0.00 0.00 0.00 27 1019.0
20260506180120 77 267 6.1 7.8 0.00 0.00 0.00 27 1019.1
20260506175716 75 292 7.0 8.7 0.00 0.00 0.00 27 1019.1
20260506175318 76 6 7.8 8.7 0.00 0.00 0.00 27 1019.1
20260506174515 76 40 0.9 7.8 0.00 0.00 0.00 28 1019.2
20260506173709 74 28 4.3 8.7 0.00 0.00 0.00 28 1019.3
20260506173313 74 28 3.5 8.7 0.00 0.00 0.00 28 1019.2
20260506173311 74 28 3.5 8.7 0.00 0.00 0.00 28 1019.2
20260506172907 74 25 2.6 7.0 0.00 0.00 0.00 28 1019.2
20260506172506 75 182 0.9 2.6 0.00 0.00 0.00 29 1019.2
20260506172107 75 355 3.5 6.1 0.00 0.00 0.00 29 1019.1
20260506171301 78 140 2.6 2.6 0.00 0.00 0.00 30 1019.1
20260506170900 78 182 0.0 1.7 0.00 0.00 0.00 30 1019.2
20260506170503 78 299 0.9 1.7 0.00 0.00 0.00 31 1019.2
20260506165656 76 249 2.6 2.6 0.00 0.00 0.00 32 1019.1
20260506165256 76 310 0.0 2.6 0.00 0.00 0.00 33 1019.0
20260506163658 73 27 2.6 3.5 0.00 0.00 0.00 35 1019.1
20260506163251 73 81 2.6 4.3 0.00 0.00 0.00 35 1019.1
20260506162854 73 121 3.5 4.3 0.00 0.00 0.00 36 1019.1
20260506162446 72 177 0.9 4.3 0.00 0.00 0.00 37 1019.1
20260506162058 71 135 3.5 6.1 0.00 0.00 0.00 37 1019.1
20260506161649 72 135 6.1 6.1 0.00 0.00 0.00 38 1019.1
20260506160842 72 211 0.9 4.3 0.00 0.00 0.00 40 1019.2
20260506160441 72 122 2.6 2.6 0.00 0.00 0.00 40 1019.2
20260506155637 70 150 0.9 4.3 0.00 0.00 0.00 42 1019.3
20260506155237 70 135 2.6 2.6 0.00 0.00 0.00 43 1019.3
20260506154835 69 300 0.0 3.5 0.00 0.00 0.00 44 1019.2
20260506154512 68 339 0.9 2.6 0.00 0.00 0.00 45 1019.3
20260506154433 68 339 0.9 2.6 0.00 0.00 0.00 45 1019.3
20260506154032 67 135 0.9 4.3 0.00 0.00 0.00 45 1019.4
20260506153631 67 117 4.3 4.3 0.00 0.00 0.00 46 1019.3
20260506153229 67 109 0.0 2.6 0.00 0.00 0.00 47 1019.4
20260506152427 67 182 0.0 0.9 0.00 0.00 0.00 49 1019.4
20260506152025 67 135 1.7 2.6 0.00 0.00 0.00 50 1019.5
20260506151223 66 112 0.9 1.7 0.00 0.00 0.00 52 1019.5
20260506151016 66 321 0.0 0.9 0.00 0.00 0.00 52 1019.5
20260506150822 66 321 0.0 0.9 0.00 0.00 0.00 52 1019.5
20260506150424 65 78 0.0 0.9 0.00 0.00 0.00 53 1019.5
20260506145617 64 225 0.0 0.9 0.00 0.00 0.00 54 1019.4
20260506145218 63 232 0.0 0.9 0.00 0.00 0.00 55 1019.5
20260506144046 60 315 0.0 0.0 0.00 0.00 0.00 56 1019.5
20260506144013 60 315 0.0 0.0 0.00 0.00 0.00 56 1019.5
20260506143613 59 166 0.0 0.0 0.00 0.00 0.00 57 1019.5
20260506142808 58 310 0.0 0.0 0.00 0.00 0.00 58 1019.5
20260506142411 57 279 0.0 0.9 0.00 0.00 0.00 58 1019.5
20260506142006 56 288 0.9 0.9 0.00 0.00 0.00 58 1019.4
20260506141605 54 279 0.0 0.9 0.00 0.00 0.00 58 1019.5
20260506141204 53 297 0.0 0.9 0.00 0.00 0.00 58 1019.4
20260506140802 52 30 0.9 0.9 0.00 0.00 0.00 58 1019.3
20260506140000 51 42 0.0 0.0 0.00 0.00 0.00 59 1019.1
20260506135157 50 270 0.0 0.0 0.00 0.00 0.00 59 1019.2
20260506134756 49 283 0.0 0.0 0.00 0.00 0.00 59 1019.1
20260506134355 49 270 0.0 0.0 0.00 0.00 0.00 59 1019.0
20260506133552 47 274 0.0 0.0 0.00 0.00 0.00 59 1019.1
20260506131946 45 279 0.0 0.0 0.00 0.00 0.00 59 1019.0
20260506131545 44 303 0.0 0.0 0.00 0.00 0.00 59 1019.0
20260506130743 44 235 0.0 0.0 0.00 0.00 0.00 58 1018.8
20260506130343 45 135 0.0 0.0 0.00 0.00 0.00 58 1018.8
20260506125942 45 202 0.0 0.0 0.00 0.00 0.00 58 1018.7
20260506125539 710 234 0.0 0.9 0.00 0.00 0.00 58 1018.6
20260506124335 44 324 0.0 1.7 0.00 0.00 0.00 58 1018.8
20260506123938 44 346 1.7 1.7 0.00 0.00 0.00 58 1018.8
20260506123535 45 312 0.0 0.0 0.00 0.00 0.00 58 1018.6
20260506123332 45 308 0.0 0.0 0.00 0.00 0.00 58 1018.6
20260506123131 45 308 0.0 0.0 0.00 0.00 0.00 58 1018.6
20260506122730 45 288 0.0 0.0 0.00 0.00 0.00 58 1018.6
20260506122330 45 81 0.0 0.0 0.00 0.00 0.00 58 1018.5
20260506121930 46 216 0.0 0.0 0.00 0.00 0.00 58 1.0
20260506121529 46 237 0.0 0.0 0.00 0.00 0.00 58 1018.4
20260506120723 46 180 0.0 0.0 0.00 0.00 0.00 58 1018.4
20260506120322 45 182 0.0 0.9 0.00 0.00 0.00 58 1018.4
20260506115921 45 227 0.0 0.9 0.00 0.00 0.00 58 1018.4
20260506115520 45 274 0.0 0.9 0.00 0.00 0.00 58 1018.5
20260506115119 45 337 0.0 0.9 0.00 0.00 0.00 58 1018.4
20260506114719 46 337 0.0 0.0 0.00 0.00 0.00 58 1018.3
20260506114316 45 274 0.0 0.0 0.00 0.00 0.00 58 1018.3
20260506113915 45 274 0.0 0.0 0.00 0.00 0.00 58 1018.3
20260506113513 46 274 0.0 0.0 0.00 0.00 0.00 58 1018.2
20260506113112 46 306 0.0 0.0 0.00 0.00 0.00 58 1018.3
20260506112711 46 315 0.0 0.0 0.00 0.00 0.00 58 1018.3
20260506112310 46 306 0.0 0.0 0.00 0.00 0.00 58 1018.2
20260506111908 46 42 0.0 0.0 0.00 0.00 0.00 58 1018.2
20260506111541 46 42 0.0 0.0 0.00 0.00 0.00 58 1018.3
20260506111507 46 42 0.0 0.0 0.00 0.00 0.00 58 1018.3
20260506111142 46 310 0.0 0.0 0.00 0.00 0.00 58 1018.3
20260506111106 46 310 0.0 0.0 0.00 0.00 0.00 58 1018.3
20260506110705 46 301 0.0 0.0 0.00 0.00 0.00 58 1018.3
20260506110303 46 228 0.0 0.0 0.00 0.00 0.00 58 1018.3
20260506105902 46 231 0.0 0.0 0.00 0.00 0.00 58 1018.3
20260506105500 46 342 0.0 0.0 0.00 0.00 0.00 57 1018.4
20260506104658 46 232 0.0 0.0 0.00 0.00 0.00 57 1018.3
20260506104257 46 227 0.0 0.0 0.00 0.00 0.00 57 1018.3
20260506103856 46 230 0.0 0.0 0.00 0.00 0.00 57 1018.3
20260506103053 46 306 0.0 0.0 0.00 0.00 0.00 57 1018.3
20260506102651 46 306 0.0 0.0 0.00 0.00 0.00 57 1018.4
20260506102250 47 306 0.0 0.0 0.00 0.00 0.00 57 1018.4
20260506101451 47 315 0.0 0.0 0.00 0.00 0.00 57 1018.3
20260506100645 47 315 0.0 0.0 0.00 0.00 0.00 57 1018.3
20260506100244 48 274 0.0 0.0 0.00 0.00 0.00 57 1018.3
20260506095843 48 231 0.0 0.0 0.00 0.00 0.00 57 1018.3
20260506095442 48 232 0.0 0.0 0.00 0.00 0.00 57 1018.3
20260506095040 48 315 0.0 0.0 0.00 0.00 0.00 57 1018.3
20260506094639 48 279 0.0 0.9 0.00 0.00 0.00 57 1018.3
20260506093839 48 274 0.0 0.0 0.00 0.00 0.00 57 1018.6
20260506092633 48 335 0.0 0.0 0.00 0.00 0.00 57 1018.5
20260506092233 48 353 0.0 0.0 0.00 0.00 0.00 57 1018.5
20260506091829 48 310 0.0 0.0 0.00 0.00 0.00 56 1018.4
20260506091428 48 279 0.0 0.0 0.00 0.00 0.00 56 1018.4
20260506090626 48 306 0.0 0.9 0.00 0.00 0.00 56 1018.6
20260506090225 48 312 0.0 0.0 0.00 0.00 0.00 56 1018.6
20260506085827 49 274 0.0 0.0 0.00 0.00 0.00 56 1018.5
20260506085423 49 279 0.0 0.0 0.00 0.00 0.00 56 1018.6
20260506085021 49 274 0.0 0.0 0.00 0.00 0.00 56 1018.6
20260506084620 49 283 0.0 0.0 0.00 0.00 0.00 56 1018.7
20260506084218 49 283 0.0 0.0 0.00 0.00 0.00 56 1018.7
20260506083817 49 234 0.0 0.9 0.00 0.00 0.00 56 1018.8
20260506083416 49 301 0.0 0.0 0.00 0.00 0.00 56 1018.8
20260506083014 49 310 0.0 0.0 0.00 0.00 0.00 56 1018.9
20260506082613 49 310 0.0 0.9 0.00 0.00 0.00 56 1018.8
20260506081410 49 233 0.0 0.9 0.00 0.00 0.00 56 1018.8
20260506080205 49 274 0.0 0.0 0.00 0.00 0.00 56 1018.8
20260506073358 49 270 0.0 0.0 0.00 0.00 0.00 55 1018.9
20260506072555 49 298 0.0 0.0 0.00 0.00 0.00 55 1018.9
20260506071751 50 270 0.0 0.0 0.00 0.00 0.00 55 1018.8
20260506071350 50 274 0.0 0.0 0.00 0.00 0.00 55 1018.7
20260506070949 50 306 0.0 0.0 0.00 0.00 0.00 55 1018.7
20260506070548 50 310 0.0 0.0 0.00 0.00 0.00 54 1018.7
20260506061331 52 283 0.0 0.9 0.00 0.00 0.00 53 1018.1
20260506060930 52 227 0.0 0.0 0.00 0.00 0.00 53 1018.2
20260506060127 52 135 0.0 0.9 0.00 0.00 0.00 53 1018.1
20260506051311 54 227 0.0 0.0 0.00 0.00 0.00 51 1017.8
20260506050910 54 225 0.0 0.0 0.00 0.00 0.00 51 1017.7
20260506044904 55 182 0.0 0.0 0.00 0.00 0.00 50 1017.5
20260506044503 55 182 0.0 0.0 0.00 0.00 0.00 50 1017.5
20260506044101 55 45 0.0 0.0 0.00 0.00 0.00 50 1017.5
20260506043700 55 45 0.0 0.9 0.00 0.00 0.00 49 1017.5
20260506043259 55 45 0.9 0.9 0.00 0.00 0.00 49 1017.3
20260506042857 56 85 0.0 0.0 0.00 0.00 0.00 49 1017.2
20260506042503 55 45 0.0 0.9 0.00 0.00 0.00 49 1017.2
20260506042057 56 42 0.0 0.9 0.00 0.00 0.00 49 1017.1
20260506041654 56 45 0.0 0.9 0.00 0.00 0.00 48 1017.1
20260506041253 57 135 0.0 0.9 0.00 0.00 0.00 48 1017.0
20260506040451 57 78 0.0 0.9 0.00 0.00 0.00 48 1016.9
20260506040048 57 346 0.0 0.0 0.00 0.00 0.00 48 1016.9
20260506035246 58 306 0.0 0.0 0.00 0.00 0.00 47 1016.8
20260506034956 58 274 0.0 0.9 0.00 0.00 0.00 47 1016.8
20260506034845 58 274 0.0 0.9 0.00 0.00 0.00 47 1016.8
20260506034444 58 135 0.9 1.7 0.00 0.00 0.00 47 1016.7
20260506032838 58 283 0.9 0.9 0.00 0.00 0.00 45 1016.6
20260506032036 58 83 1.7 1.7 0.00 0.00 0.00 45 1016.4
20260506031634 59 83 0.9 1.7 0.00 0.00 0.00 45 1016.3
20260506030833 59 27 0.9 0.9 0.00 0.00 0.00 44 1016.1
20260506030431 59 315 0.0 0.9 0.00 0.00 0.00 43 1016.1
20260506030032 59 277 0.0 2.6 0.00 0.00 0.00 43 1016.0
20260506025628 60 135 1.7 2.6 0.00 0.00 0.00 43 1016.0
20260506025226 60 135 1.7 2.6 0.00 0.00 0.00 42 1016.0
20260506024825 60 130 2.6 4.3 0.00 0.00 0.00 42 1015.9
20260506024424 60 108 2.6 5.2 0.00 0.00 0.00 42 1015.7
20260506024023 60 83 4.3 7.0 0.00 0.00 0.00 41 1015.8
20260506022824 61 135 0.9 2.6 0.00 0.00 0.00 41 1015.7
20260506022417 61 85 2.6 2.6 0.00 0.00 0.00 40 1015.5
20260506022020 61 135 2.6 4.3 0.00 0.00 0.00 40 1015.6
20260506021615 61 128 4.3 5.2 0.00 0.00 0.00 40 1015.4
20260506021214 62 85 4.3 4.3 0.00 0.00 0.00 40 1015.4
20260506020813 62 135 3.5 3.5 0.00 0.00 0.00 39 1015.3
20260506020411 62 87 2.6 4.3 0.00 0.00 0.00 39 1015.4
20260506015207 62 112 2.6 5.2 0.00 0.00 0.00 38 1015.3
20260506014806 63 135 3.5 3.5 0.00 0.00 0.00 38 1015.3
20260506014405 63 155 2.6 5.2 0.00 0.00 0.00 38 1015.3
20260506014003 63 114 3.5 6.1 0.00 0.00 0.00 37 1015.2
20260506013201 64 117 3.5 5.2 0.00 0.00 0.00 37 1015.1
20260506012359 65 110 3.5 5.2 0.00 0.00 0.00 37 1015.1
20260506011957 65 148 3.5 5.2 0.00 0.00 0.00 36 1015.1
20260506011556 65 123 0.9 5.2 0.00 0.00 0.00 36 1015.0
20260506011154 65 157 2.6 4.3 0.00 0.00 0.00 36 1015.1
20260506010753 65 144 3.5 6.1 0.00 0.00 0.00 36 1015.1
20260506005951 66 132 5.2 5.2 0.00 0.00 0.00 36 1015.1
20260506005550 66 123 2.6 6.1 0.00 0.00 0.00 35 1015.1
20260506004821 67 135 2.6 4.3 0.00 0.00 0.00 35 1015.0
20260506004747 67 135 2.6 4.3 0.00 0.00 0.00 35 1015.0
20260506003543 68 183 0.9 2.6 0.00 0.00 0.00 35 1014.9
20260506003142 68 213 1.7 3.5 0.00 0.00 0.00 35 1014.9
20260506002339 68 180 2.6 2.6 0.00 0.00 0.00 34 1014.9
20260506001135 69 185 0.9 4.3 0.00 0.00 0.00 34 1014.7
20260506000734 69 195 0.9 6.1 0.00 0.00 0.00 34 1014.7
20260505235931 69 135 0.9 5.2 0.00 0.00 0.00 33 1014.7
20260505235532 69 193 0.9 5.2 0.00 0.00 0.00 33 1014.7
20260505234728 69 184 0.9 2.6 0.00 0.00 0.00 33 1014.8
20260505233929 69 139 1.7 6.1 0.00 0.00 0.00 32 1014.8
20260505233123 69 171 5.2 5.2 0.00 0.00 0.00 32 1015.0
20260505232721 69 171 3.5 7.8 0.00 0.00 0.00 31 1014.8